When you browse on this site, cookies collect data to enhance your experience and personalize the content and advertising you see.
Visit our Privacy Policy to learn more. By continuing to use the site, you agree to this use of cookies and data.
  • In Spain
  • List of Countries
  • For 7 days
  • Water Temperature
  • Satellite Maps
  • Weather Map
  • Weather Widgets
  • user-avatar
    Login

    Hourly Weather Cacalosuchil

    Today, 18 February, Monday

    Time Temperature Precipitation Wind Pressure Humidity
    00:00 +20°C° 0 mm 1 mps 628 mmHg 30%
    01:00 +20°C° 0 mm 1 mps 628 mmHg 30%
    02:00 +19°C° 0 mm 1 mps 627 mmHg 31%
    03:00 +19°C° 0 mm 1 mps 627 mmHg 32%
    04:00 +18°C° 0 mm 1 mps 627 mmHg 33%
    05:00 +18°C° 0 mm 1 mps 627 mmHg 34%
    06:00 +20°C° 0 mm 1 mps 628 mmHg 31%
    07:00 +20°C° 0 mm 0 mps 629 mmHg 29%
    08:00 +22°C° 0 mm 0 mps 630 mmHg 27%
    09:00 +26°C° 0 mm 1 mps 630 mmHg 24%
    10:00 +28°C° 0 mm 1 mps 631 mmHg 21%
    11:00 +30°C° 0 mm 2 mps 631 mmHg 18%
    12:00 +30°C° 0 mm 3 mps 630 mmHg 18%
    13:00 +31°C° 0 mm 3 mps 630 mmHg 17%
    14:00 +31°C° 0 mm 3 mps 629 mmHg 17%
    15:00 +30°C° 0 mm 3 mps 629 mmHg 18%
    16:00 +29°C° 0 mm 3 mps 629 mmHg 19%
    17:00 +28°C° 0 mm 2 mps 628 mmHg 21%
    18:00 +26°C° 0 mm 2 mps 628 mmHg 21%
    19:00 +24°C° 0 mm 2 mps 628 mmHg 21%
    20:00 +22°C° 0 mm 1 mps 629 mmHg 21%
    21:00 +22°C° 0 mm 1 mps 629 mmHg 21%
    22:00 +21°C° 0 mm 1 mps 628 mmHg 22%
    23:00 +21°C° 0 mm 1 mps 628 mmHg 22%

    Tomorrow, 19 February, Tuesday

    Time Temperature Precipitation Wind Pressure Humidity
    00:00 +20°C° 0 mm 1 mps 628 mmHg 24%
    01:00 +19°C° 0 mm 1 mps 628 mmHg 25%
    02:00 +19°C° 0 mm 1 mps 627 mmHg 27%
    03:00 +18°C° 0 mm 1 mps 627 mmHg 28%
    04:00 +18°C° 0 mm 1 mps 627 mmHg 29%
    05:00 +16°C° 0 mm 1 mps 627 mmHg 30%
    06:00 +19°C° 0 mm 1 mps 628 mmHg 29%
    07:00 +21°C° 0 mm 1 mps 629 mmHg 28%
    08:00 +22°C° 0 mm 1 mps 630 mmHg 27%
    09:00 +24°C° 0 mm 2 mps 630 mmHg 25%
    10:00 +26°C° 0 mm 3 mps 630 mmHg 23%
    11:00 +27°C° 0 mm 3 mps 630 mmHg 20%
    12:00 +28°C° 0 mm 4 mps 630 mmHg 19%
    13:00 +28°C° 0 mm 4 mps 629 mmHg 17%
    14:00 +29°C° 0 mm 4 mps 628 mmHg 16%
    15:00 +28°C° 0 mm 4 mps 628 mmHg 18%
    16:00 +27°C° 0 mm 3 mps 627 mmHg 19%
    17:00 +26°C° 0 mm 3 mps 627 mmHg 21%
    18:00 +24°C° 0 mm 2 mps 627 mmHg 25%
    19:00 +21°C° 0 mm 2 mps 627 mmHg 28%
    20:00 +19°C° 0 mm 2 mps 627 mmHg 31%
    21:00 +20°C° 0 mm 1 mps 627 mmHg 34%
    22:00 +19°C° 0 mm 1 mps 627 mmHg 36%
    23:00 +19°C° 0 mm 1 mps 627 mmHg 39%

    Day after tomorrow, 20 February, Wednesday

    Time Temperature Precipitation Wind Pressure Humidity
    00:00 +18°C° 0 mm 1 mps 626 mmHg 39%
    01:00 +18°C° 0 mm 1 mps 626 mmHg 40%
    02:00 +16°C° 0 mm 1 mps 625 mmHg 40%
    03:00 +16°C° 0 mm 1 mps 625 mmHg 40%
    04:00 +15°C° 0 mm 1 mps 625 mmHg 40%
    05:00 +15°C° 0 mm 1 mps 625 mmHg 40%
    06:00 +18°C° 0 mm 1 mps 626 mmHg 36%
    07:00 +18°C° 0 mm 0 mps 627 mmHg 32%
    08:00 +20°C° 0 mm 0 mps 628 mmHg 28%
    09:00 +23°C° 0 mm 1 mps 628 mmHg 26%
    10:00 +25°C° 0 mm 2 mps 629 mmHg 23%
    11:00 +27°C° 0 mm 3 mps 629 mmHg 20%
    12:00 +27°C° 0 mm 3 mps 628 mmHg 19%
    13:00 +28°C° 0 mm 4 mps 627 mmHg 17%
    14:00 +28°C° 0 mm 4 mps 627 mmHg 15%
    15:00 +28°C° 0 mm 3 mps 626 mmHg 16%
    16:00 +27°C° 0 mm 3 mps 626 mmHg 17%
    17:00 +26°C° 0 mm 2 mps 626 mmHg 19%
    18:00 +24°C° 0 mm 2 mps 626 mmHg 20%
    19:00 +21°C° 0 mm 2 mps 626 mmHg 22%
    20:00 +20°C° 0 mm 1 mps 626 mmHg 23%
    21:00 +20°C° 0 mm 1 mps 626 mmHg 24%
    22:00 +19°C° 0 mm 1 mps 626 mmHg 25%
    23:00 +18°C° 0 mm 1 mps 626 mmHg 26%

    21 February, Thursday

    Time Temperature Precipitation Wind Pressure Humidity
    00:00 +18°C° 0 mm 1 mps 626 mmHg 28%
    01:00 +16°C° 0 mm 1 mps 625 mmHg 29%
    02:00 +16°C° 0 mm 1 mps 625 mmHg 31%
    03:00 +15°C° 0 mm 1 mps 625 mmHg 31%
    04:00 +15°C° 0 mm 1 mps 625 mmHg 32%
    05:00 +14°C° 0 mm 1 mps 625 mmHg 33%
    06:00 +16°C° 0 mm 1 mps 626 mmHg 31%
    07:00 +19°C° 0 mm 1 mps 627 mmHg 28%
    08:00 +21°C° 0 mm 1 mps 628 mmHg 26%
    09:00 +23°C° 0 mm 1 mps 629 mmHg 23%
    10:00 +25°C° 0 mm 2 mps 629 mmHg 21%
    11:00 +27°C° 0 mm 3 mps 629 mmHg 18%
    12:00 +27°C° 0 mm 3 mps 628 mmHg 17%
    13:00 +28°C° 0 mm 4 mps 628 mmHg 15%
    14:00 +29°C° 0 mm 4 mps 627 mmHg 14%
    15:00 +28°C° 0 mm 4 mps 627 mmHg 15%
    16:00 +27°C° 0 mm 3 mps 627 mmHg 16%
    17:00 +26°C° 0 mm 3 mps 626 mmHg 18%
    18:00 +24°C° 0 mm 2 mps 627 mmHg 20%
    19:00 +21°C° 0 mm 2 mps 627 mmHg 22%
    20:00 +19°C° 0 mm 2 mps 627 mmHg 24%
    21:00 +20°C° 0 mm 1 mps 627 mmHg 24%
    22:00 +19°C° 0 mm 1 mps 627 mmHg 25%
    23:00 +19°C° 0 mm 1 mps 627 mmHg 25%

    22 February, Friday

    Time Temperature Precipitation Wind Pressure Humidity
    00:00 +18°C° 0 mm 1 mps 626 mmHg 25%
    01:00 +18°C° 0 mm 1 mps 626 mmHg 25%
    02:00 +16°C° 0 mm 1 mps 626 mmHg 25%
    03:00 +16°C° 0 mm 1 mps 626 mmHg 26%
    04:00 +16°C° 0 mm 1 mps 626 mmHg 26%
    05:00 +15°C° 0 mm 1 mps 626 mmHg 26%
    06:00 +19°C° 0 mm 1 mps 627 mmHg 24%
    07:00 +19°C° 0 mm 0 mps 628 mmHg 22%
    08:00 +21°C° 0 mm 0 mps 630 mmHg 20%
    09:00 +24°C° 0 mm 1 mps 630 mmHg 18%
    10:00 +26°C° 0 mm 2 mps 630 mmHg 17%
    11:00 +28°C° 0 mm 3 mps 630 mmHg 16%
    12:00 +28°C° 0 mm 3 mps 630 mmHg 16%
    13:00 +29°C° 0 mm 3 mps 629 mmHg 15%
    14:00 +30°C° 0 mm 3 mps 629 mmHg 15%
    15:00 +29°C° 0 mm 3 mps 629 mmHg 17%
    16:00 +28°C° 0 mm 3 mps 628 mmHg 19%
    17:00 +27°C° 0 mm 2 mps 628 mmHg 21%
    18:00 +25°C° 0 mm 2 mps 628 mmHg 23%
    19:00 +23°C° 0 mm 2 mps 628 mmHg 26%
    20:00 +21°C° 0 mm 1 mps 628 mmHg 28%
    21:00 +21°C° 0 mm 1 mps 628 mmHg 30%
    22:00 +20°C° 0 mm 1 mps 628 mmHg 31%
    23:00 +20°C° 0 mm 1 mps 628 mmHg 32%

    23 February, Saturday

    Time Temperature Precipitation Wind Pressure Humidity
    00:00 +19°C° 0 mm 1 mps 628 mmHg 33%
    01:00 +19°C° 0 mm 1 mps 627 mmHg 35%
    02:00 +18°C° 0 mm 1 mps 627 mmHg 36%
    03:00 +18°C° 0 mm 1 mps 627 mmHg 36%
    04:00 +18°C° 0 mm 1 mps 627 mmHg 37%
    05:00 +16°C° 0 mm 1 mps 627 mmHg 38%
    06:00 +19°C° 0 mm 1 mps 628 mmHg 35%
    07:00 +19°C° 0 mm 0 mps 629 mmHg 32%
    08:00 +21°C° 0 mm 0 mps 630 mmHg 29%
    09:00 +25°C° 0 mm 1 mps 631 mmHg 27%
    10:00 +27°C° 0 mm 2 mps 631 mmHg 25%
    11:00 +28°C° 0 mm 2 mps 631 mmHg 22%
    12:00 +29°C° 0 mm 3 mps 630 mmHg 21%
    13:00 +30°C° 0 mm 3 mps 630 mmHg 21%
    14:00 +30°C° 0 mm 3 mps 629 mmHg 20%
    15:00 +29°C° 0 mm 3 mps 629 mmHg 21%
    16:00 +29°C° 0 mm 3 mps 629 mmHg 23%
    17:00 +28°C° 0 mm 3 mps 628 mmHg 25%
    18:00 +26°C° 0 mm 2 mps 628 mmHg 28%
    19:00 +24°C° 0 mm 2 mps 628 mmHg 32%
    20:00 +22°C° 0 mm 1 mps 629 mmHg 36%
    21:00 +22°C° 0 mm 1 mps 628 mmHg 37%
    22:00 +21°C° 0 mm 1 mps 628 mmHg 38%
    23:00 +21°C° 0 mm 1 mps 628 mmHg 39%
    Show more